Location: Bad Dürkheim
(49.4618°N, 8.1724°E)
Time: 16:34:55
(UTC+00:00)

Cosmos 1943 - Pass Details

Date: 14 June 2025
Orbit: 830 x 849 km, 71.0° (Epoch: 19 July)

Event Time Altitude Azimuth Distance (km) Brightness Sun altitude
Rises 21:50:46 0° 332° (NNW) 3,425 8.3 -14.1°
Reaches altitude 10° 21:53:14 10° 334° (NNW) 2,486 7.1 -14.2°
Maximum altitude 21:58:57 73° 60° (ENE) 893 3.3 -14.6°
Enters shadow 22:02:55 21° 141° (SE) 1,839 4.4 -14.8°
